DELTA 1 DEB, 10314

Orbit data source: Space-Track

DELTA 1 DEB, 10314 is space debris in LEO originally from a launch on Thu, 14 Jul 1977 UTC launched from the Air Force Eastern Test Range (AFETR). Debris objects in space refer to the collection of defunct objects orbiting the Earth. Examples of debris include non-operational satellites, rocket bodies, and fragments generated from explosions, collisions, or faulty payload assembly.

Loading next visibility...
Identifier
10314, 1977-065DL
Orbit
LEO
Country
Flag of USUS
Related business
Manufacturer
Unknown
Mission
Spacecraft
Bus & Motor
Unknown
Mass
Unknown
Launch date (UTC)
1977-07-14 (48 years ago)
Launch vehicle
Unknown
Launch site
Air Force Eastern Test Range (AFETR)
Object type
Payload
Rocket body
Debris
Shape & HBR
Unknown shape, 0.1 m
Radar Cross Section
Small (<0.1 m²)

Expand to show TLE details & history
Last TLE update: 1 day ago

TLE from 1 day ago
0 DELTA 1 DEB
1 10314U 77065DL  25300.66108753  .00007579  00000-0  26083-2 0  9999
2 10314  28.7829  66.9530 0637761 217.6742 268.0308 13.57999713327682
Epoch: 2025-10-27T15:51Z
TLE epoch observation values (Epoch: 2025-10-27T15:51:57.962Z)
Latitude
25.15579°
Longitude
-85.56086°
Altitude
1,087.744 km
Speed
7.29 km/s
True Right ascension
12h 34m 45s
True Declination
25° 01' 46"
Sunlit
Object was in daylight at epoch
Visualization orbit readout
Latitude
Unknown
Longitude
Unknown
Altitude
Unknown
Speed
Unknown
Apparent Right ascension
Unknown
Apparent Declination
Unknown
Sunlit
N/A
Visualization observer readout
Local Sidereal Time
12:45:18
Azimuth
Unknown
Elevation
Unknown
Doppler factor
Unknown
Orbital elements
Apogee altitude
1,520.409 km
Perigee altitude
573.333 km
Semi-major axis
7,425.008 km
Eccentricity
0.06378
Inclination
28.7829°
RAAN
66.953°
Arg. of periapsis
217.6742°
True anomaly
260.76637°
Mean anomaly
268.0308°
Eccentric anomaly
264.39417°
Mean motion
3.39233 °/min
Orbital period
106.12 mins
BSTAR
0.0026083
Loading maneuver chart data...
Computing Atmospheric mass density...

Documentation

Showing up to 5 results
|